Valparaiso, IN

6:33 PM CDT on April 26, 2017 (GMT -0500)
Porter County Municipal

Weather History for KVPZ - March, 2014

Change the Weather History Date:

Thursday, March 6, 2014

  Actual Average Record
Temperature  
Mean Temperature 18 °F 34 °F  
Max Temperature 27 °F 42 °F 70 °F (1956)
Min Temperature 8 °F 26 °F -6 °F (1960)
Degree Days  
Heating Degree Days 47 31  
Month to date heating degree days 303 191  
Since 1 July heating degree days 5752 4923  
Cooling Degree Days 0 0  
Month to date cooling degree days 0 0  
Year to date cooling degree days 0 0  
Moisture  
Dew Point 11 °F    
Average Humidity 73    
Maximum Humidity 84    
Minimum Humidity 58    
Precipitation  
Precipitation 0.00 in 0.08 in 1.17 in (1999)
Month to date precipitation 0.06 0.47  
Year to date precipitation 2.69 3.64  
Sea Level Pressure  
Sea Level Pressure 30.30 in    
Wind  
Wind Speed 7 mph (East)    
Max Wind Speed 17 mph    
Max Gust Speed 21 mph    
Visibility 10 miles    
Events      
T = Trace of Precipitation, MM = Missing Value Source: NWS Daily Summary

Daily Weather History Graph

Daily Weather History Graph

Search for Another Location

Airport or City:

Trip Planner

Search our weather history database for the weather conditions in past years. The results will help you decide how hot, cold, wet, or windy it might be!

Date:

Astronomy

Mar. 06, 2014 Rise Set
Actual Time 6:14 AM CST 5:44 PM CST
Civil Twilight 5:46 AM CST 6:12 PM CST
Nautical Twilight 5:14 AM CST 6:44 PM CST
Astronomical Twilight 4:42 AM CST 7:16 PM CST
Moon 9:18 AM CST (3/6) 11:54 PM CST (3/6)
Length of Visible Light 12h 25m
Length of Day
11h 29m
Waxing Crescent, 32% of the Moon is Illuminated
Mar 6
Waxing Crescent
Mar 8
First Quarter
Mar 16
Full
Mar 23
Last Quarter
Mar 30
New

Hourly Weather History & Observations

Time (CST) Temp. Windchill Dew Point Humidity Pressure Visibility Wind Dir Wind Speed Gust Speed Precip Events Conditions
12:53 AM 17.1 °F 2.0 °F 10.0 °F 74% 30.45 in 10.0 mi East 16.1 mph - N/A   Overcast
1:53 AM 17.1 °F 3.0 °F 10.0 °F 74% 30.43 in 10.0 mi East 13.8 mph - N/A   Mostly Cloudy
2:53 AM 16.0 °F 2.3 °F 10.0 °F 77% 30.41 in 10.0 mi East 12.7 mph - N/A   Mostly Cloudy
3:53 AM 16.0 °F 4.4 °F 10.0 °F 77% 30.43 in 10.0 mi East 9.2 mph - N/A   Overcast
4:53 AM 15.1 °F 1.8 °F 10.0 °F 80% 30.41 in 9.0 mi East 11.5 mph - N/A   Mostly Cloudy
5:53 AM 12.9 °F -0.2 °F 8.1 °F 81% 30.40 in 10.0 mi East 10.4 mph - N/A   Clear
6:53 AM 9.0 °F -2.2 °F 5.0 °F 84% 30.39 in 10.0 mi ENE 6.9 mph - N/A   Clear
7:53 AM 12.9 °F 0.7 °F 8.1 °F 81% 30.38 in 10.0 mi East 9.2 mph - N/A   Clear
8:53 AM 16.0 °F 3.6 °F 10.0 °F 77% 30.37 in 10.0 mi East 10.4 mph - N/A   Clear
9:53 AM 19.0 °F 8.2 °F 10.9 °F 71% 30.38 in 10.0 mi ESE 9.2 mph - 0.00 in   Clear
10:53 AM 21.0 °F 12.4 °F 10.9 °F 65% 30.35 in 10.0 mi SE 6.9 mph - 0.00 in   Clear
11:53 AM 23.0 °F 14.7 °F 12.9 °F 65% 30.33 in 10.0 mi East 6.9 mph - N/A   Clear
12:53 PM 25.0 °F 18.1 °F 12.9 °F 60% 30.29 in 10.0 mi East 5.8 mph - N/A   Clear
1:53 PM 26.1 °F 19.4 °F 14.0 °F 60% 30.27 in 10.0 mi ENE 5.8 mph - N/A   Clear
2:53 PM 27.0 °F 19.5 °F 14.0 °F 58% 30.25 in 10.0 mi East 6.9 mph - N/A   Clear
3:53 PM 27.0 °F 23.0 °F 15.1 °F 61% 30.23 in 10.0 mi ENE 3.5 mph - N/A   Clear
4:53 PM 27.0 °F 23.0 °F 15.1 °F 61% 30.21 in 10.0 mi ENE 3.5 mph - N/A   Clear
5:53 PM 23.0 °F 18.4 °F 14.0 °F 68% 30.20 in 10.0 mi East 3.5 mph - N/A   Clear
6:53 PM 19.0 °F 13.9 °F 12.0 °F 74% 30.19 in 10.0 mi ENE 3.5 mph - N/A   Clear
7:53 PM 19.0 °F 13.9 °F 12.9 °F 77% 30.19 in 10.0 mi ENE 3.5 mph - N/A   Clear
8:53 PM 16.0 °F 10.4 °F 12.0 °F 84% 30.19 in 9.0 mi East 3.5 mph - N/A   Clear
9:53 PM 18.0 °F 7.7 °F 12.9 °F 81% 30.18 in 8.0 mi ESE 8.1 mph - N/A   Clear
10:53 PM 18.0 °F 11.1 °F 12.9 °F 81% 30.16 in 10.0 mi ESE 4.6 mph - N/A   Clear
11:53 PM 16.0 °F - 12.0 °F 84% 30.14 in 8.0 mi Calm Calm - N/A   Clear